| time (UTC) | temp F | wind direction | speed knots | gust knots | rain 1hr in | rain 24hr in | rain mn in | humidity % | barometer mb |
| 20260507093011 | 52 | 326 | 0.0 | 3.5 | 0.00 | 0.00 | 0.00 | 75 | 1016.1 |
| 20260507091513 | 54 | 333 | 0.0 | 6.1 | 0.00 | 0.00 | 0.00 | 74 | 1016.1 |
| 20260507090008 | 53 | 14 | 0.9 | 4.3 | 0.00 | 0.00 | 0.00 | 75 | 1016.2 |
| 20260507084506 | 54 | 266 | 0.9 | 6.1 | 0.00 | 0.00 | 0.00 | 75 | 1016.0 |
| 20260507083003 | 53 | 202 | 0.0 | 4.3 | 0.00 | 0.00 | 0.00 | 76 | 1016.0 |
| 20260507081610 | 52 | 311 | 0.9 | 4.3 | 0.00 | 0.00 | 0.00 | 76 | 1015.8 |
| 20260507080115 | 52 | 39 | 0.0 | 1.7 | 0.00 | 0.00 | 0.00 | 77 | 1015.7 |
| 20260507074553 | 52 | 306 | 0.9 | 3.5 | 0.00 | 0.00 | 0.00 | 79 | 1015.5 |
| 20260507073049 | 51 | 306 | 0.0 | 3.5 | 0.00 | 0.00 | 0.00 | 80 | 1015.5 |
| 20260507071604 | 50 | 271 | 0.0 | 2.6 | 0.00 | 0.00 | 0.00 | 79 | 1015.5 |
| 20260507070042 | 50 | 246 | 0.0 | 2.6 | 0.00 | 0.00 | 0.00 | 80 | 1015.4 |
| 20260507064537 | 49 | 240 | 0.9 | 3.5 | 0.00 | 0.00 | 0.00 | 82 | 1015.4 |
| 20260507063041 | 48 | 254 | 0.9 | 2.6 | 0.00 | 0.00 | 0.00 | 83 | 1015.3 |
| 20260507061531 | 48 | 272 | 0.9 | 2.6 | 0.00 | 0.00 | 0.00 | 85 | 1015.2 |
| 20260507060030 | 47 | 292 | 0.0 | 0.9 | 0.00 | 0.00 | 0.00 | 85 | 1015.0 |
| 20260507054525 | 46 | 320 | 1.7 | 3.5 | 0.00 | 0.00 | 0.00 | 87 | 1014.9 |
| 20260507053021 | 45 | 204 | 0.0 | 0.0 | 0.00 | 0.00 | 0.00 | 88 | 1014.6 |
| 20260507051527 | 42 | 204 | 0.0 | 0.9 | 0.00 | 0.00 | 0.00 | 88 | 1014.5 |
| 20260507050013 | 40 | 283 | 0.0 | 2.6 | 0.00 | 0.00 | 0.00 | 88 | 1014.4 |
| 20260507044508 | 39 | 276 | 2.6 | 3.5 | 0.00 | 0.00 | 0.00 | 88 | 1014.3 |
| 20260507043010 | 38 | 288 | 0.9 | 3.5 | 0.00 | 0.00 | 0.00 | 89 | 1014.2 |
| 20260507041505 | 37 | 284 | 0.9 | 4.3 | 0.00 | 0.00 | 0.00 | 88 | 1014.0 |
| 20260507040118 | 37 | 277 | 1.7 | 4.3 | 0.00 | 0.00 | 0.00 | 88 | 1013.9 |
| 20260507034601 | 37 | 269 | 0.0 | 0.0 | 0.00 | 0.00 | 0.00 | 88 | 1013.8 |
| 20260507033101 | 36 | 293 | 0.0 | 2.6 | 0.00 | 0.00 | 0.00 | 88 | 1013.7 |
| 20260507031557 | 36 | 282 | 0.0 | 3.5 | 0.00 | 0.00 | 0.00 | 87 | 1013.8 |
| 20260507030055 | 37 | 300 | 2.6 | 4.3 | 0.00 | 0.00 | 0.00 | 86 | 1013.7 |
| 20260507024600 | 38 | 292 | 1.7 | 4.3 | 0.00 | 0.00 | 0.00 | 86 | 1013.7 |
| 20260507023047 | 38 | 339 | 1.7 | 4.3 | 0.00 | 0.00 | 0.00 | 86 | 1013.6 |
| 20260507021545 | 39 | 17 | 0.0 | 2.6 | 0.00 | 0.00 | 0.00 | 86 | 1013.4 |
| 20260507020045 | 38 | 360 | 0.0 | 3.5 | 0.00 | 0.00 | 0.00 | 85 | 1013.3 |
| 20260507014550 | 38 | 344 | 2.6 | 4.3 | 0.00 | 0.00 | 0.00 | 84 | 1013.3 |
| 20260507013036 | 40 | 15 | 1.7 | 3.5 | 0.00 | 0.00 | 0.00 | 82 | 1013.3 |
| 20260507011540 | 40 | 23 | 2.6 | 3.5 | 0.00 | 0.00 | 0.00 | 82 | 1013.2 |
| 20260507010036 | 40 | 19 | 2.6 | 3.5 | 0.00 | 0.00 | 0.00 | 81 | 1013.3 |
| 20260507004537 | 40 | 5 | 1.7 | 4.3 | 0.00 | 0.00 | 0.00 | 80 | 1013.3 |
| 20260507003031 | 41 | 5 | 3.5 | 5.2 | 0.00 | 0.00 | 0.00 | 79 | 1013.2 |
| 20260507001531 | 41 | 17 | 3.5 | 5.2 | 0.00 | 0.00 | 0.00 | 80 | 1013.1 |
| 20260507000029 | 41 | 15 | 4.3 | 7.0 | 0.00 | 0.00 | 0.00 | 79 | 1013.1 |
| 20260506234527 | 41 | 11 | 5.2 | 7.8 | 0.00 | 0.00 | 0.00 | 79 | 1013.1 |
| 20260506233024 | 41 | 15 | 3.5 | 6.1 | 0.00 | 0.00 | 0.00 | 77 | 1013.2 |
| 20260506231523 | 41 | 5 | 3.5 | 5.2 | 0.00 | 0.00 | 0.00 | 77 | 1013.2 |
| 20260506230021 | 41 | 5 | 4.3 | 7.0 | 0.00 | 0.00 | 0.00 | 75 | 1013.1 |
| 20260506224520 | 42 | 15 | 3.5 | 5.2 | 0.00 | 0.00 | 0.00 | 74 | 1013.0 |
| 20260506223017 | 42 | 10 | 3.5 | 5.2 | 0.00 | 0.00 | 0.00 | 74 | 1013.0 |
| 20260506221513 | 42 | 360 | 1.7 | 3.5 | 0.00 | 0.00 | 0.00 | 74 | 1012.9 |
| 20260506220028 | 42 | 355 | 2.6 | 5.2 | 0.00 | 0.00 | 0.00 | 74 | 1013.0 |
| 20260506214510 | 43 | 9 | 2.6 | 6.1 | 0.00 | 0.00 | 0.00 | 73 | 1012.7 |
| 20260506213010 | 43 | 15 | 3.5 | 7.0 | 0.00 | 0.00 | 0.00 | 74 | 1012.5 |
| 20260506211510 | 43 | 355 | 4.3 | 7.0 | 0.00 | 0.00 | 0.00 | 74 | 1012.7 |
| 20260506210013 | 43 | 360 | 3.5 | 7.0 | 0.00 | 0.00 | 0.00 | 76 | 1012.7 |
| 20260506204509 | 43 | 355 | 6.1 | 8.7 | 0.00 | 0.00 | 0.00 | 76 | 1012.6 |
| 20260506203013 | 44 | 355 | 6.1 | 8.7 | 0.00 | 0.00 | 0.00 | 76 | 1012.6 |
| 20260506201507 | 44 | 355 | 4.3 | 7.8 | 0.00 | 0.00 | 0.00 | 76 | 1012.6 |
| 20260506200005 | 45 | 360 | 4.3 | 7.8 | 0.00 | 0.00 | 0.00 | 75 | 1012.5 |
| 20260506194505 | 46 | 355 | 2.6 | 7.8 | 0.00 | 0.00 | 0.00 | 73 | 1012.4 |
| 20260506193002 | 47 | 355 | 4.3 | 8.7 | 0.00 | 0.00 | 0.00 | 72 | 1012.3 |
| 20260506191609 | 49 | 14 | 3.5 | 7.0 | 0.00 | 0.00 | 0.00 | 67 | 1011.9 |
| 20260506191501 | 49 | 18 | 3.5 | 7.0 | 0.00 | 0.00 | 0.00 | 67 | 1012.0 |
| 20260506190059 | 51 | 160 | 0.0 | 0.9 | 0.00 | 0.00 | 0.00 | 64 | 1011.7 |
| 20260506184559 | 52 | 150 | 0.0 | 0.9 | 0.00 | 0.00 | 0.00 | 63 | 1011.5 |
| 20260506183113 | 53 | 55 | 0.0 | 0.9 | 0.00 | 0.00 | 0.00 | 61 | 1011.3 |
| 20260506181601 | 53 | 44 | 1.7 | 4.3 | 0.00 | 0.00 | 0.00 | 61 | 1011.2 |
| 20260506180113 | 52 | 17 | 0.0 | 1.7 | 0.00 | 0.00 | 0.00 | 62 | 1011.2 |
| 20260506174553 | 52 | 100 | 0.0 | 3.5 | 0.00 | 0.00 | 0.00 | 64 | 1011.0 |
| 20260506173118 | 53 | 22 | 0.0 | 3.5 | 0.00 | 0.00 | 0.00 | 63 | 1010.9 |
| 20260506171548 | 54 | 35 | 2.6 | 5.2 | 0.00 | 0.00 | 0.00 | 63 | 1010.9 |
| 20260506170046 | 54 | 61 | 1.7 | 3.5 | 0.00 | 0.00 | 0.00 | 65 | 1010.8 |
| 20260506164544 | 54 | 25 | 3.5 | 7.8 | 0.00 | 0.00 | 0.00 | 60 | 1010.7 |
| 20260506163045 | 55 | 32 | 2.6 | 4.3 | 0.00 | 0.00 | 0.00 | 61 | 1010.7 |
| 20260506161552 | 56 | 30 | 2.6 | 5.2 | 0.00 | 0.00 | 0.00 | 57 | 1010.7 |
| 20260506160045 | 57 | 26 | 5.2 | 7.8 | 0.00 | 0.00 | 0.00 | 55 | 1010.7 |
| 20260506154544 | 57 | 36 | 2.6 | 7.8 | 0.00 | 0.00 | 0.00 | 48 | 1010.7 |
| 20260506153042 | 57 | 36 | 0.9 | 7.8 | 0.00 | 0.00 | 0.00 | 48 | 1010.8 |
| 20260506151545 | 57 | 36 | 1.7 | 9.6 | 0.00 | 0.00 | 0.00 | 47 | 1010.7 |
| 20260506150043 | 57 | 25 | 0.9 | 7.0 | 0.00 | 0.00 | 0.00 | 43 | 1010.8 |
| 20260506144558 | 58 | 26 | 5.2 | 7.0 | 0.00 | 0.00 | 0.00 | 51 | 1010.7 |
| 20260506143039 | 56 | 21 | 0.0 | 0.9 | 0.00 | 0.00 | 0.00 | 52 | 1010.7 |
| 20260506141540 | 55 | 17 | 2.6 | 5.2 | 0.00 | 0.00 | 0.00 | 49 | 1010.9 |
| 20260506140037 | 57 | 69 | 1.7 | 4.3 | 0.00 | 0.00 | 0.00 | 47 | 1010.9 |
| 20260506134536 | 56 | 27 | 2.6 | 8.7 | 0.00 | 0.00 | 0.00 | 52 | 1010.9 |
| 20260506133041 | 57 | 360 | 3.5 | 10.4 | 0.00 | 0.00 | 0.00 | 54 | 1010.8 |
| 20260506131534 | 58 | 74 | 0.9 | 8.7 | 0.00 | 0.00 | 0.00 | 53 | 1011.0 |
| 20260506130037 | 58 | 23 | 3.5 | 9.6 | 0.00 | 0.00 | 0.00 | 58 | 1010.9 |
| 20260506124532 | 58 | 30 | 7.8 | 11.3 | 0.00 | 0.00 | 0.00 | 59 | 1010.9 |
| 20260506123032 | 57 | 32 | 1.7 | 8.7 | 0.00 | 0.00 | 0.00 | 58 | 1011.0 |
| 20260506121530 | 58 | 11 | 1.7 | 9.6 | 0.00 | 0.00 | 0.00 | 61 | 1011.0 |
| 20260506120030 | 57 | 355 | 4.3 | 7.8 | 0.00 | 0.00 | 0.00 | 56 | 1011.1 |
| 20260506114527 | 57 | 73 | 0.9 | 6.1 | 0.00 | 0.00 | 0.00 | 56 | 1011.1 |
| 20260506113025 | 56 | 34 | 1.7 | 7.0 | 0.00 | 0.00 | 0.00 | 61 | 1011.2 |
| 20260506111524 | 56 | 355 | 1.7 | 7.0 | 0.00 | 0.00 | 0.00 | 64 | 1011.2 |
| 20260506110023 | 55 | 19 | 0.9 | 7.8 | 0.00 | 0.00 | 0.00 | 62 | 1011.3 |
| 20260506104526 | 54 | 43 | 0.9 | 7.0 | 0.00 | 0.00 | 0.00 | 66 | 1011.2 |
| 20260506103024 | 55 | 33 | 3.5 | 9.6 | 0.00 | 0.00 | 0.00 | 69 | 1011.2 |
| 20260506101523 | 55 | 21 | 4.3 | 8.7 | 0.00 | 0.00 | 0.00 | 72 | 1011.2 |
| 20260506100019 | 56 | 68 | 1.7 | 7.0 | 0.00 | 0.00 | 0.00 | 69 | 1011.2 |
| 20260506094516 | 54 | 17 | 0.9 | 7.8 | 0.00 | 0.00 | 0.00 | 62 | 1011.3 |